Weather History for Kansas City, MO

Change the Weather History Date:

Saturday, December 29, 2012

  Actual Average Record
Temperature  
Mean Temperature 26 °F -  
Max Temperature 34 °F 38 °F 68 °F (1999)
Min Temperature 19 °F 21 °F 10 °F (2000)
Degree Days  
Heating Degree Days 38    
Moisture  
Dew Point 15 °F    
Average Humidity 64    
Maximum Humidity 75    
Minimum Humidity 44    
Precipitation  
Precipitation 0.00 in - - ()
Sea Level Pressure  
Sea Level Pressure 30.26 in    
Wind  
Wind Speed 8 mph (WNW)    
Max Wind Speed 15 mph    
Max Gust Speed 22 mph    
Visibility 8 miles    
Events      
Averages and records for this station are not official NWS values.
T = Trace of Precipitation, MM = Missing Value Source: NWS Daily Summary

Daily Weather History Graph

Daily Weather History Graph

Search for Another Location

Airport:

Trip Planner

Search our weather history database for the weather conditions in past years. The results will help you decide how hot, cold, wet, or windy it might be!

Date:

Astronomy

Dec. 29, 2012 Rise Set
Actual Time 7:37 AM CST 5:04 PM CST
Civil Twilight 7:07 AM CST 5:34 PM CST
Nautical Twilight 6:33 AM CST 6:07 PM CST
Astronomical Twilight 6:01 AM CST 6:40 PM CST
Moon 6:37 PM CST (12/29) 8:11 AM CST (12/29)
Length of Visible Light 10h 27m
Length of Day
9h 27m
Full, 98% of the Moon is Illuminated
Dec 29
Full
Jan 4
Last Quarter
Jan 11
New
Jan 18
First Quarter
Jan 26
Full

Hourly Weather History & Observations

Time (CST) Temp. Windchill Dew Point Humidity Pressure Visibility Wind Dir Wind Speed Gust Speed Precip Events Conditions
12:09 AM 24.8 °F 14.0 °F 15.8 °F 69% 30.08 in 6.0 mi NW 11.5 mph - N/A   Haze
12:54 AM 24.1 °F 13.1 °F 16.0 °F 71% 30.11 in 5.0 mi NW 11.5 mph - N/A   Haze
1:54 AM 23.0 °F 10.1 °F 16.0 °F 74% 30.13 in 4.0 mi NW 15.0 mph 21.9 mph N/A   Haze
2:54 AM 23.0 °F 13.9 °F 15.1 °F 72% 30.17 in 5.0 mi NW 8.1 mph 16.1 mph N/A   Haze
3:54 AM 21.9 °F 12.5 °F 14.0 °F 72% 30.18 in 5.0 mi NW 8.1 mph - N/A   Haze
4:54 AM 21.9 °F 11.7 °F 14.0 °F 72% 30.19 in 6.0 mi NW 9.2 mph - N/A   Haze
5:54 AM 21.9 °F 12.5 °F 14.0 °F 72% 30.21 in 7.0 mi NW 8.1 mph - N/A   Overcast
6:54 AM 21.0 °F 9.9 °F 14.0 °F 74% 30.24 in 8.0 mi NW 10.4 mph - N/A   Overcast
7:54 AM 21.0 °F 10.6 °F 12.9 °F 71% 30.27 in 8.0 mi WNW 9.2 mph - N/A   Overcast
8:54 AM 19.9 °F 7.3 °F 12.9 °F 74% 30.30 in 6.0 mi West 12.7 mph - N/A   Haze
9:54 AM 21.9 °F 15.7 °F 14.0 °F 72% 30.30 in 6.0 mi WSW 4.6 mph - N/A   Haze
10:54 AM 25.0 °F 19.3 °F 12.9 °F 60% 30.32 in 10.0 mi NW 4.6 mph - N/A   Clear
11:54 AM 28.0 °F 20.8 °F 14.0 °F 56% 30.30 in 10.0 mi West 6.9 mph - N/A   Clear
12:54 PM 30.9 °F 23.5 °F 14.0 °F 50% 30.27 in 10.0 mi WSW 8.1 mph - N/A   Clear
1:54 PM 34.0 °F 27.2 °F 14.0 °F 44% 30.27 in 10.0 mi West 8.1 mph - N/A   Clear
2:54 PM 34.0 °F 27.2 °F 15.1 °F 46% 30.27 in 10.0 mi WSW 8.1 mph - N/A   Clear
3:54 PM 34.0 °F 26.6 °F 16.0 °F 48% 30.30 in 10.0 mi West 9.2 mph - N/A   Clear
4:54 PM 33.1 °F 27.7 °F 16.0 °F 50% 30.29 in 10.0 mi WSW 5.8 mph - N/A   Clear
5:54 PM 33.1 °F - 17.1 °F 52% 30.30 in 10.0 mi Calm Calm - N/A   Clear
6:54 PM 32.0 °F - 17.1 °F 54% 30.32 in 10.0 mi Calm Calm - N/A   Clear
7:54 PM 30.9 °F - 17.1 °F 57% 30.32 in 10.0 mi Calm Calm - N/A   Clear
8:54 PM 30.0 °F - 18.0 °F 61% 30.32 in 10.0 mi Calm Calm - N/A   Clear
9:54 PM 27.0 °F - 19.9 °F 75% 30.31 in 10.0 mi Calm Calm - N/A   Clear
10:54 PM 25.0 °F - 18.0 °F 75% 30.32 in 10.0 mi Calm Calm - N/A   Clear
11:54 PM 26.1 °F - 19.0 °F 75% 30.33 in 10.0 mi Calm Calm - N/A   Clear